This is the latest recevied weather packets stored in our database for station/object WX5HOT. If no packets are shown the sender has not sent any weather packets the latest 10 day(s).
| Time | Temp. | Humidity | Pressure | Rain* | Wind** | Luminosity | Snow |
|---|---|---|---|---|---|---|---|
| 1778064207 | 10.56° C | 99% | 1060.5 hPa | 0 mm | - | 0 W/m² | - |
| 1778063904 | 10.56° C | 99% | 1060.6 hPa | 0 mm | - | 0 W/m² | - |
| 1778063602 | 11.11° C | 99% | 1060.4 hPa | 0 mm | - | 0 W/m² | - |
| 1778063299 | 11.11° C | 99% | 1060.7 hPa | 0 mm | - | 0 W/m² | - |
| 1778062997 | 11.11° C | 99% | 1059.9 hPa | 0 mm | - | 0 W/m² | - |
| 1778062694 | 11.67° C | 99% | 1060.2 hPa | 0 mm | - | 0 W/m² | - |
| 1778062390 | 11.67° C | 99% | 1059.6 hPa | 0 mm | - | 0 W/m² | - |
| 1778062088 | 11.67° C | 99% | 1059.9 hPa | 1.27 mm | - | 0 W/m² | - |
| 1778061786 | 11.67° C | 99% | 1060.3 hPa | 1.27 mm | - | 0 W/m² | - |
| 1778061484 | 11.67° C | 99% | 1060.1 hPa | 0 mm | - | 0 W/m² | - |
| 1778061181 | 11.67° C | 99% | 1060.2 hPa | 0 mm | - | 0 W/m² | - |
| 1778060877 | 12.22° C | 99% | 1059.9 hPa | 0 mm | - | 0 W/m² | - |
| 1778060576 | 12.22° C | 99% | 1060.1 hPa | 0 mm | - | 0 W/m² | - |
| 1778060274 | 12.22° C | 99% | 1059.6 hPa | 0 mm | - | 0 W/m² | - |
| 1778059971 | 11.67° C | 99% | 1059.4 hPa | 0 mm | - | 0 W/m² | - |
| 1778059668 | 11.67° C | 99% | 1059.7 hPa | 0 mm | - | 0 W/m² | - |
| 1778059366 | 11.67° C | 99% | 1059.5 hPa | 0 mm | - | 0 W/m² | - |
| 1778059063 | 11.67° C | 99% | 1059.6 hPa | 0 mm | - | 0 W/m² | - |
| 1778058761 | 11.67° C | 99% | 1059.7 hPa | 0 mm | - | 0 W/m² | - |
| 1778058459 | 11.67° C | 99% | 1059.4 hPa | 0 mm | - | 0 W/m² | - |
| 1778058155 | 11.67° C | 99% | 1059.2 hPa | 0 mm | - | 0 W/m² | - |
| 1778057852 | 12.22° C | 99% | 1059.2 hPa | 0 mm | - | 0 W/m² | - |
| 1778057548 | 12.22° C | 99% | 1059.2 hPa | 0 mm | - | 0 W/m² | - |
| 1778057245 | 12.22° C | 99% | 1059.1 hPa | 0 mm | - | 0 W/m² | - |
| 1778056941 | 12.78° C | 99% | 1058.8 hPa | 0 mm | - | 0 W/m² | - |
* Rain latest hour (hover to see other rain measurements)
** Current wind speed in m/s (hover to see current wind gust speed)